,,,PA_Meas_PMT16A,,PR_Meas_QMR101_102,,RH_Meas_QMH101,,SR_Meas_QMS101,,TA_Meas_QMH101,,GenWind,,GenWind,
date,time,status,PA,status,PR,status,RH,status,SR,status,TA,status,DirAvg,status,SpdAvg,
2012-09-03, 00:00:04,VALID,1000.38,VALID,0,VALID,70.0933,VALID,0,VALID,25.4578,VALID,160,VALID,2.25156,
2012-09-03, 00:01:04,VALID,1000.37,VALID,0,VALID,69.5058,VALID,0,VALID,25.4559,VALID,151,VALID,2.63008,
2012-09-03, 00:02:04,VALID,1000.35,VALID,0,VALID,69.5898,VALID,0,VALID,25.5164,VALID,152,VALID,2.10898,
2012-09-03, 00:03:04,VALID,1000.31,VALID,0,VALID,69.7652,VALID,0,VALID,25.5164,VALID,139,VALID,1.86328,
2012-09-03, 00:04:04,VALID,1000.3,VALID,0,VALID,70.1849,VALID,0,VALID,25.4559,VALID,147,VALID,1.28359,
2012-09-03, 00:05:04,VALID,1000.24,VALID,0,VALID,70.0933,VALID,0,VALID,25.4578,VALID,148,VALID,1.18633,
2012-09-03, 00:06:04,VALID,1000.2,VALID,0,VALID,70.7037,VALID,0,VALID,25.4188,VALID,136,VALID,1.43945,
2012-09-03, 00:07:04,VALID,1000.13,VALID,0,VALID,70.7876,VALID,0,VALID,25.3797,VALID,122,VALID,1.34883,
2012-09-03, 00:08:04,VALID,1000.14,VALID,0,VALID,71.4895,VALID,0,VALID,25.3212,VALID,121,VALID,1.15391,
2012-09-03, 00:09:04,VALID,1000.13,VALID,0,VALID,71.459,VALID,0,VALID,25.2412,VALID,116,VALID,0.769141,
2012-09-03, 00:10:04,VALID,1000.11,VALID,0,VALID,72.4738,VALID,0,VALID,25.2236,VALID,123,VALID,0.44375,
2012-09-03, 00:11:04,VALID,1000.13,VALID,0,VALID,72.3135,VALID,0,VALID,25.126,VALID,123,VALID,0.419922,
2012-09-03, 00:12:04,VALID,1000.1,VALID,0,VALID,72.6187,VALID,0,VALID,25.085,VALID,123,VALID,0,
2012-09-03, 00:13:04,VALID,1000.09,VALID,0,VALID,72.6874,VALID,0,VALID,25.046,VALID,123,VALID,0,
2012-09-03, 00:14:04,VALID,1000.12,VALID,0,VALID,72.7866,VALID,0,VALID,25.0088,VALID,123,VALID,0,
2012-09-03, 00:15:04,VALID,1000.1,VALID,0,VALID,73.725,VALID,0,VALID,24.9893,VALID,123,VALID,0.0175781,
2012-09-03, 00:16:04,VALID,1000.09,VALID,0,VALID,74.1294,VALID,0,VALID,24.9503,VALID,123,VALID,0.0660156,
2012-09-03, 00:17:04,VALID,1000.08,VALID,0,VALID,74.2972,VALID,0,VALID,24.9112,VALID,123,VALID,0.207813,
2012-09-03, 00:18:04,VALID,1000.06,VALID,0,VALID,74.0531,VALID,0,VALID,24.8527,VALID,123,VALID,0.0734375,
2012-09-03, 00:19:04,VALID,1000.03,VALID,0,VALID,74.7245,VALID,0,VALID,24.8332,VALID,123,VALID,0,
2012-09-03, 00:20:04,VALID,1000.03,VALID,0,VALID,74.9076,VALID,0,VALID,24.7941,VALID,123,VALID,0,
2012-09-03, 00:21:04,VALID,1000.02,VALID,0,VALID,75.1975,VALID,0.104696,VALID,24.7337,VALID,123,VALID,0,
2012-09-03, 00:22:04,VALID,1000,VALID,0,VALID,75.5256,VALID,0,VALID,24.716,VALID,123,VALID,0.379297,
2012-09-03, 00:23:04,VALID,999.975,VALID,0,VALID,76.0902,VALID,0,VALID,24.6556,VALID,122,VALID,0.376563,
2012-09-03, 00:24:04,VALID,999.968,VALID,0,VALID,76.3801,VALID,0,VALID,24.6166,VALID,108,VALID,0.444531,
2012-09-03, 00:25:04,VALID,1000,VALID,0,VALID,76.4488,VALID,0,VALID,24.5989,VALID,81,VALID,0.0945313,
2012-09-03, 00:26:04,VALID,999.965,VALID,0,VALID,76.6853,VALID,0.104696,VALID,24.5794,VALID,81,VALID,0.480859,
2012-09-03, 00:27:04,VALID,999.936,VALID,0,VALID,76.8226,VALID,0,VALID,24.5599,VALID,56,VALID,0.672656,
2012-09-03, 00:28:04,VALID,999.944,VALID,0,VALID,76.4412,VALID,0,VALID,24.5404,VALID,357,VALID,0.722656,
2012-09-03, 00:29:04,VALID,999.922,VALID,0,VALID,76.6243,VALID,0,VALID,24.5404,VALID,357,VALID,0.635938,
2012-09-03, 00:30:04,VALID,999.922,VALID,0,VALID,76.5098,VALID,0,VALID,24.5599,VALID,357,VALID,0.617188,
2012-09-03, 00:31:04,VALID,999.899,VALID,0,VALID,76.4488,VALID,0,VALID,24.5404,VALID,357,VALID,0.427734,
2012-09-03, 00:32:04,VALID,999.889,VALID,0,VALID,77.3262,VALID,0,VALID,24.5599,VALID,357,VALID,0.362109,
2012-09-03, 00:33:04,VALID,999.875,VALID,0,VALID,77.5093,VALID,0,VALID,24.5404,VALID,357,VALID,0.417188,
2012-09-03, 00:34:04,VALID,999.827,VALID,0,VALID,77.8298,VALID,0,VALID,24.5013,VALID,357,VALID,0.150781,
2012-09-03, 00:35:04,VALID,999.853,VALID,0,VALID,77.1965,VALID,0,VALID,24.4604,VALID,357,VALID,0.514453,
2012-09-03, 00:36:04,VALID,999.802,VALID,0,VALID,77.2346,VALID,0,VALID,24.4623,VALID,357,VALID,0.655078,
2012-09-03, 00:37:04,VALID,999.827,VALID,0,VALID,77.3949,VALID,0,VALID,24.4214,VALID,357,VALID,0.663672,
2012-09-03, 00:38:04,VALID,999.79,VALID,0,VALID,77.2423,VALID,0,VALID,24.4037,VALID,357,VALID,0.625781,
2012-09-03, 00:39:04,VALID,999.79,VALID,0,VALID,77.1736,VALID,0,VALID,24.3629,VALID,357,VALID,0.242188,
2012-09-03, 00:40:04,VALID,999.756,VALID,0,VALID,78.1731,VALID,0,VALID,24.3842,VALID,357,VALID,0,
2012-09-03, 00:41:04,VALID,999.719,VALID,0,VALID,78.051,VALID,0,VALID,24.3647,VALID,357,VALID,0,
2012-09-03, 00:42:04,VALID,999.709,VALID,0,VALID,77.0286,VALID,0,VALID,24.3257,VALID,357,VALID,0,
2012-09-03, 00:43:04,VALID,999.705,VALID,0,VALID,76.1512,VALID,0,VALID,24.3257,VALID,357,VALID,0.270703,
2012-09-03, 00:44:04,VALID,999.711,VALID,0,VALID,75.5256,VALID,0,VALID,24.3647,VALID,357,VALID,0.303125,
2012-09-03, 00:45:04,VALID,999.7,VALID,0,VALID,75.1975,VALID,0,VALID,24.4623,VALID,357,VALID,0.55,
2012-09-03, 00:46:04,VALID,999.706,VALID,0,VALID,75.3349,VALID,0,VALID,24.5209,VALID,357,VALID,0.649219,
2012-09-03, 00:47:04,VALID,999.697,VALID,0,VALID,75.2815,VALID,0,VALID,24.5794,VALID,29,VALID,0.937109,
2012-09-03, 00:48:04,VALID,999.713,VALID,0,VALID,75.5485,VALID,0,VALID,24.6575,VALID,167,VALID,0.879297,
2012-09-03, 00:49:04,VALID,999.702,VALID,0,VALID,74.4422,VALID,0,VALID,24.6965,VALID,167,VALID,1.17773,
2012-09-03, 00:50:04,VALID,999.687,VALID,0,VALID,74.3049,VALID,0,VALID,24.7746,VALID,160,VALID,1.21055,
2012-09-03, 00:51:04,VALID,999.641,VALID,0,VALID,73.7784,VALID,0,VALID,24.8332,VALID,156,VALID,1.4875,
2012-09-03, 00:52:04,VALID,999.619,VALID,0,VALID,73.7403,VALID,0,VALID,24.8722,VALID,150,VALID,1.54609,
2012-09-03, 00:53:04,VALID,999.639,VALID,0,VALID,73.7327,VALID,0,VALID,24.8703,VALID,143,VALID,1.53984,
2012-09-03, 00:54:04,VALID,999.621,VALID,0,VALID,74.0989,VALID,0,VALID,24.8527,VALID,147,VALID,1.56992,
2012-09-03, 00:55:04,VALID,999.641,VALID,0,VALID,74.7016,VALID,0.104696,VALID,24.8117,VALID,153,VALID,1.61172,
2012-09-03, 00:56:04,VALID,999.677,VALID,0,VALID,74.4575,VALID,0,VALID,24.8117,VALID,147,VALID,1.60547,
2012-09-03, 00:57:04,VALID,999.675,VALID,0,VALID,74.3583,VALID,0,VALID,24.7922,VALID,139,VALID,1.62852,
2012-09-03, 00:58:04,VALID,999.67,VALID,0,VALID,75.0602,VALID,0,VALID,24.7941,VALID,137,VALID,1.16953,
2012-09-03, 00:59:04,VALID,999.663,VALID,0,VALID,74.9915,VALID,0,VALID,24.7532,VALID,134,VALID,1.26992,
2012-09-03, 01:00:04,VALID,999.627,VALID,0,VALID,74.4727,VALID,0,VALID,24.7337,VALID,135,VALID,1.54375,
2012-09-03, 01:01:04,VALID,999.63,VALID,0,VALID,74.7398,VALID,0,VALID,24.7551,VALID,135,VALID,1.33359,
2012-09-03, 01:02:04,VALID,999.594,VALID,0,VALID,74.7855,VALID,0,VALID,24.7356,VALID,139,VALID,1.18672,
2012-09-03, 01:03:04,VALID,999.58,VALID,0,VALID,74.9,VALID,0,VALID,24.6965,VALID,137,VALID,1.07148,
2012-09-03, 01:04:04,VALID,999.548,VALID,0,VALID,74.8161,VALID,0,VALID,24.6556,VALID,139,VALID,1.28711,
2012-09-03, 01:05:04,VALID,999.553,VALID,0,VALID,75.1823,VALID,0,VALID,24.677,VALID,144,VALID,1.13984,
2012-09-03, 01:06:04,VALID,999.543,VALID,0,VALID,74.8542,VALID,0,VALID,24.6575,VALID,146,VALID,1.42266,
2012-09-03, 01:07:04,VALID,999.536,VALID,0,VALID,74.8847,VALID,0,VALID,24.677,VALID,149,VALID,1.2207,
2012-09-03, 01:08:04,VALID,999.49,VALID,0,VALID,74.9839,VALID,0,VALID,24.6965,VALID,143,VALID,1.34063,
2012-09-03, 01:09:04,VALID,999.469,VALID,0,VALID,74.9,VALID,0,VALID,24.716,VALID,129,VALID,1.25234,
2012-09-03, 01:10:04,VALID,999.479,VALID,0,VALID,74.7092,VALID,0,VALID,24.6965,VALID,133,VALID,1.38867,
2012-09-03, 01:11:04,VALID,999.469,VALID,0,VALID,74.7703,VALID,0,VALID,24.6946,VALID,128,VALID,1.59063,
2012-09-03, 01:12:04,VALID,999.495,VALID,0,VALID,75.0449,VALID,0,VALID,24.6946,VALID,121,VALID,1.53477,
2012-09-03, 01:13:04,VALID,999.492,VALID,0,VALID,74.9458,VALID,0,VALID,24.6751,VALID,124,VALID,1.79102,
2012-09-03, 01:14:04,VALID,999.492,VALID,0,VALID,74.8542,VALID,0,VALID,24.6751,VALID,120,VALID,1.59453,
2012-09-03, 01:15:04,VALID,999.492,VALID,0,VALID,75.2967,VALID,0,VALID,24.6751,VALID,119,VALID,1.49805,
2012-09-03, 01:16:04,VALID,999.511,VALID,0,VALID,75.6782,VALID,0,VALID,24.6361,VALID,116,VALID,1.34063,
2012-09-03, 01:17:04,VALID,999.532,VALID,0,VALID,76.2199,VALID,0,VALID,24.5971,VALID,106,VALID,1.48438,
2012-09-03, 01:18:04,VALID,999.515,VALID,0,VALID,76.8532,VALID,0,VALID,24.519,VALID,109,VALID,1.67734,
2012-09-03, 01:19:04,VALID,999.561,VALID,0,VALID,76.8608,VALID,0,VALID,24.4604,VALID,104,VALID,1.70938,
2012-09-03, 01:20:04,VALID,999.53,VALID,0,VALID,76.7463,VALID,0,VALID,24.4428,VALID,103,VALID,1.39414,
2012-09-03, 01:21:04,VALID,999.517,VALID,0,VALID,76.9066,VALID,0,VALID,24.4623,VALID,99,VALID,1.28086,
2012-09-03, 01:22:04,VALID,999.526,VALID,0,VALID,77.0134,VALID,0,VALID,24.4233,VALID,88,VALID,1.37734,
2012-09-03, 01:23:04,VALID,999.53,VALID,0,VALID,76.7692,VALID,0,VALID,24.4428,VALID,104,VALID,1.54805,
2012-09-03, 01:24:04,VALID,999.533,VALID,0,VALID,76.7921,VALID,0,VALID,24.4604,VALID,108,VALID,1.45664,
2012-09-03, 01:25:04,VALID,999.506,VALID,0,VALID,76.9371,VALID,0,VALID,24.4995,VALID,95,VALID,1.24258,
2012-09-03, 01:26:04,VALID,999.448,VALID,0,VALID,76.9447,VALID,0,VALID,24.5404,VALID,77,VALID,1.54336,
2012-09-03, 01:27:04,VALID,999.425,VALID,0,VALID,77.2423,VALID,0,VALID,24.48,VALID,70,VALID,1.42656,
2012-09-03, 01:28:04,VALID,999.409,VALID,0,VALID,77.6695,VALID,0,VALID,24.4214,VALID,74,VALID,1.425,
2012-09-03, 01:29:04,VALID,999.428,VALID,0,VALID,78.0129,VALID,0,VALID,24.3629,VALID,88,VALID,1.4375,
2012-09-03, 01:30:04,VALID,999.398,VALID,0,VALID,78.0815,VALID,0,VALID,24.3452,VALID,70,VALID,1.2625,
2012-09-03, 01:31:04,VALID,999.401,VALID,0,VALID,78.1044,VALID,0,VALID,24.3062,VALID,60,VALID,1.38594,
2012-09-03, 01:32:04,VALID,999.458,VALID,0,VALID,78.3486,VALID,0,VALID,24.2458,VALID,68,VALID,1.12188,
2012-09-03, 01:33:04,VALID,999.477,VALID,0,VALID,78.6232,VALID,0,VALID,24.2281,VALID,71,VALID,0.666406,
2012-09-03, 01:34:04,VALID,999.459,VALID,0,VALID,78.8903,VALID,0,VALID,24.1872,VALID,71,VALID,0.106641,
2012-09-03, 01:35:04,VALID,999.471,VALID,0,VALID,79.0123,VALID,0,VALID,24.1696,VALID,71,VALID,0,
2012-09-03, 01:36:04,VALID,999.447,VALID,0,VALID,79.3252,VALID,0,VALID,24.15,VALID,71,VALID,0.182031,
2012-09-03, 01:37:04,VALID,999.435,VALID,0,VALID,79.966,VALID,0,VALID,24.111,VALID,318,VALID,0.597656,
2012-09-03, 01:38:04,VALID,999.417,VALID,0,VALID,81.3775,VALID,0,VALID,24.111,VALID,318,VALID,0.800391,
2012-09-03, 01:39:04,VALID,999.407,VALID,0,VALID,82.1023,VALID,0,VALID,24.0543,VALID,318,VALID,0.807031,
2012-09-03, 01:40:04,VALID,999.38,VALID,0,VALID,82.6669,VALID,0,VALID,23.9939,VALID,318,VALID,0.673047,
2012-09-03, 01:41:04,VALID,999.399,VALID,0,VALID,82.8043,VALID,0,VALID,23.9336,VALID,326,VALID,0.734375,
2012-09-03, 01:42:04,VALID,999.414,VALID,0,VALID,82.8577,VALID,0,VALID,23.9159,VALID,326,VALID,0.616016,
2012-09-03, 01:43:04,VALID,999.402,VALID,0,VALID,82.8348,VALID,0,VALID,23.9159,VALID,326,VALID,0.480859,
2012-09-03, 01:44:04,VALID,999.415,VALID,0,VALID,83.0103,VALID,0,VALID,23.8768,VALID,326,VALID,0.353906,
2012-09-03, 01:45:04,VALID,999.406,VALID,0,VALID,82.995,VALID,0,VALID,23.8573,VALID,326,VALID,0.1375,
2012-09-03, 01:46:04,VALID,999.382,VALID,0,VALID,83.262,VALID,0,VALID,23.8573,VALID,326,VALID,0.408984,
2012-09-03, 01:47:04,VALID,999.384,VALID,0,VALID,82.522,VALID,0,VALID,23.8183,VALID,326,VALID,0.505469,
2012-09-03, 01:48:04,VALID,999.41,VALID,0,VALID,82.728,VALID,0,VALID,23.7988,VALID,326,VALID,0.241797,
2012-09-03, 01:49:04,VALID,999.38,VALID,0,VALID,83.0484,VALID,0,VALID,23.7775,VALID,326,VALID,0.0523437,
2012-09-03, 01:50:04,VALID,999.368,VALID,0,VALID,83.0179,VALID,0,VALID,23.7597,VALID,326,VALID,0.552344,
2012-09-03, 01:51:04,VALID,999.389,VALID,0,VALID,83.3383,VALID,0,VALID,23.7988,VALID,326,VALID,0.649609,
2012-09-03, 01:52:04,VALID,999.394,VALID,0,VALID,83.1476,VALID,0,VALID,23.7793,VALID,326,VALID,0.267188,
2012-09-03, 01:53:04,VALID,999.428,VALID,0,VALID,83.2544,VALID,0,VALID,23.7793,VALID,326,VALID,0.212109,
2012-09-03, 01:54:04,VALID,999.463,VALID,0,VALID,82.5372,VALID,0,VALID,23.7579,VALID,326,VALID,0.200391,
2012-09-03, 01:55:04,VALID,999.473,VALID,0,VALID,82.789,VALID,0,VALID,23.7579,VALID,326,VALID,0.327344,
2012-09-03, 01:56:04,VALID,999.488,VALID,0,VALID,82.9263,VALID,0,VALID,23.7793,VALID,326,VALID,0.533203,
2012-09-03, 01:57:04,VALID,999.53,VALID,0,VALID,82.5525,VALID,0,VALID,23.7579,VALID,34,VALID,0.647266,
2012-09-03, 01:58:04,VALID,999.526,VALID,0,VALID,82.6135,VALID,0,VALID,23.7988,VALID,44,VALID,0.886719,
2012-09-03, 01:59:04,VALID,999.561,VALID,0,VALID,82.2626,VALID,0,VALID,23.8165,VALID,44,VALID,0.490234,
2012-09-03, 02:00:04,VALID,999.565,VALID,0,VALID,82.4991,VALID,0,VALID,23.8768,VALID,44,VALID,0.210156,
2012-09-03, 02:01:04,VALID,999.545,VALID,0,VALID,82.7432,VALID,0,VALID,23.875,VALID,44,VALID,0,
2012-09-03, 02:02:04,VALID,999.552,VALID,0,VALID,82.7432,VALID,0,VALID,23.8963,VALID,44,VALID,0,
2012-09-03, 02:03:04,VALID,999.576,VALID,0,VALID,82.5677,VALID,0,VALID,23.8555,VALID,44,VALID,0.213672,
2012-09-03, 02:04:04,VALID,999.538,VALID,0,VALID,82.5525,VALID,0,VALID,23.8768,VALID,44,VALID,0.212891,
2012-09-03, 02:05:04,VALID,999.511,VALID,0,VALID,82.1023,VALID,0,VALID,23.8768,VALID,44,VALID,0.394141,
2012-09-03, 02:06:04,VALID,999.535,VALID,0,VALID,80.874,VALID,0,VALID,23.9159,VALID,119,VALID,0.927344,
2012-09-03, 02:07:04,VALID,999.531,VALID,0,VALID,80.0652,VALID,0,VALID,24.0525,VALID,134,VALID,1.07852,
2012-09-03, 02:08:04,VALID,999.512,VALID,0,VALID,79.3709,VALID,0,VALID,24.15,VALID,129,VALID,0.85625,
2012-09-03, 02:09:04,VALID,999.507,VALID,0,VALID,78.3333,VALID,0,VALID,24.2263,VALID,125,VALID,1.30313,
2012-09-03, 02:10:04,VALID,999.472,VALID,0,VALID,78.1197,VALID,0,VALID,24.3062,VALID,120,VALID,1.07461,
2012-09-03, 02:11:04,VALID,999.488,VALID,0,VALID,77.9671,VALID,0,VALID,24.3647,VALID,121,VALID,0.836719,
2012-09-03, 02:12:04,VALID,999.493,VALID,0,VALID,77.8145,VALID,0,VALID,24.3629,VALID,136,VALID,0.837891,
2012-09-03, 02:13:04,VALID,999.487,VALID,0,VALID,77.6772,VALID,0,VALID,24.4019,VALID,152,VALID,1.12812,
2012-09-03, 02:14:04,VALID,999.504,VALID,0,VALID,77.372,VALID,0,VALID,24.4818,VALID,158,VALID,1.78906,
2012-09-03, 02:15:04,VALID,999.442,VALID,0,VALID,76.9447,VALID,0,VALID,24.5404,VALID,154,VALID,1.41484,
2012-09-03, 02:16:04,VALID,999.438,VALID,0,VALID,77.2194,VALID,0,VALID,24.5775,VALID,115,VALID,1.20273,
2012-09-03, 02:17:04,VALID,999.377,VALID,0,VALID,76.7158,VALID,0,VALID,24.5989,VALID,118,VALID,2.46445,
2012-09-03, 02:18:04,VALID,999.399,VALID,0,VALID,76.7006,VALID,0,VALID,24.6184,VALID,123,VALID,1.98867,
2012-09-03, 02:19:04,VALID,999.407,VALID,0,VALID,76.5327,VALID,0,VALID,24.638,VALID,140,VALID,2.61406,
2012-09-03, 02:20:04,VALID,999.409,VALID,0,VALID,76.6701,VALID,0,VALID,24.6361,VALID,146,VALID,2.17578,
2012-09-03, 02:21:04,VALID,999.353,VALID,0,VALID,76.0063,VALID,0,VALID,24.6751,VALID,143,VALID,2.68008,
2012-09-03, 02:22:04,VALID,999.322,VALID,0,VALID,75.7469,VALID,0,VALID,24.7356,VALID,141,VALID,2.57188,
2012-09-03, 02:23:04,VALID,999.332,VALID,0,VALID,76.0215,VALID,0,VALID,24.7532,VALID,138,VALID,1.85703,
2012-09-03, 02:24:04,VALID,999.322,VALID,0,VALID,75.4798,VALID,0,VALID,24.7727,VALID,142,VALID,2.40313,
2012-09-03, 02:25:04,VALID,999.326,VALID,0,VALID,75.5104,VALID,0,VALID,24.8136,VALID,159,VALID,2.18789,
2012-09-03, 02:26:04,VALID,999.316,VALID,0,VALID,74.8389,VALID,0,VALID,24.8917,VALID,153,VALID,2.43516,
2012-09-03, 02:27:04,VALID,999.331,VALID,0,VALID,74.6635,VALID,0,VALID,24.9484,VALID,157,VALID,2.86602,
2012-09-03, 02:28:04,VALID,999.288,VALID,0,VALID,74.5872,VALID,0,VALID,24.9484,VALID,156,VALID,2.53867,
2012-09-03, 02:29:04,VALID,999.316,VALID,0,VALID,74.4651,VALID,0,VALID,24.9679,VALID,160,VALID,2.4168,
2012-09-03, 02:30:04,VALID,999.306,VALID,0,VALID,74.137,VALID,0,VALID,25.0088,VALID,150,VALID,3.18594,
2012-09-03, 02:31:04,VALID,999.297,VALID,0,VALID,74.0455,VALID,0,VALID,25.0265,VALID,151,VALID,2.81172,
2012-09-03, 02:32:04,VALID,999.324,VALID,0,VALID,74.3659,VALID,0,VALID,25.0284,VALID,153,VALID,1.99219,
2012-09-03, 02:33:04,VALID,999.331,VALID,0,VALID,74.4727,VALID,0,VALID,24.9893,VALID,150,VALID,2.03477,
2012-09-03, 02:34:04,VALID,999.337,VALID,0,VALID,74.5414,VALID,0,VALID,24.9289,VALID,150,VALID,2.02734,
2012-09-03, 02:35:04,VALID,999.329,VALID,0,VALID,74.8313,VALID,0,VALID,24.9308,VALID,140,VALID,1.81758,
2012-09-03, 02:36:04,VALID,999.326,VALID,0,VALID,74.8618,VALID,0,VALID,24.9112,VALID,140,VALID,1.99023,
2012-09-03, 02:37:04,VALID,999.318,VALID,0,VALID,74.4651,VALID,0,VALID,24.8898,VALID,136,VALID,2.475,
2012-09-03, 02:38:04,VALID,999.356,VALID,0,VALID,74.5872,VALID,0,VALID,24.9093,VALID,137,VALID,1.94414,
2012-09-03, 02:39:04,VALID,999.354,VALID,0,VALID,74.5338,VALID,0,VALID,24.8703,VALID,135,VALID,2.15781,
2012-09-03, 02:40:04,VALID,999.389,VALID,0,VALID,74.4575,VALID,0,VALID,24.8527,VALID,136,VALID,2.24844,
2012-09-03, 02:41:04,VALID,999.401,VALID,0,VALID,75.3196,VALID,0,VALID,24.7922,VALID,126,VALID,1.26836,
2012-09-03, 02:42:04,VALID,999.4,VALID,0,VALID,74.9915,VALID,0,VALID,24.7551,VALID,129,VALID,2.00156,
2012-09-03, 02:43:04,VALID,999.398,VALID,0,VALID,75.2204,VALID,0,VALID,24.7337,VALID,132,VALID,1.4332,
2012-09-03, 02:44:04,VALID,999.416,VALID,0,VALID,75.2662,VALID,0,VALID,24.7142,VALID,145,VALID,1.22266,
2012-09-03, 02:45:04,VALID,999.439,VALID,0,VALID,75.4417,VALID,0,VALID,24.7356,VALID,128,VALID,1.00625,
2012-09-03, 02:46:04,VALID,999.452,VALID,0,VALID,75.373,VALID,0,VALID,24.716,VALID,139,VALID,1.29727,
2012-09-03, 02:47:04,VALID,999.424,VALID,0,VALID,75.4188,VALID,0,VALID,24.677,VALID,141,VALID,1.34648,
2012-09-03, 02:48:04,VALID,999.386,VALID,0,VALID,75.2738,VALID,0,VALID,24.6575,VALID,142,VALID,1.35742,
2012-09-03, 02:49:04,VALID,999.333,VALID,0,VALID,74.8542,VALID,0,VALID,24.677,VALID,150,VALID,1.53906,
2012-09-03, 02:50:04,VALID,999.341,VALID,0,VALID,74.6863,VALID,0,VALID,24.716,VALID,155,VALID,1.6168,
2012-09-03, 02:51:04,VALID,999.349,VALID,0,VALID,74.961,VALID,0,VALID,24.7356,VALID,162,VALID,1.10742,
2012-09-03, 02:52:04,VALID,999.307,VALID,0,VALID,74.3735,VALID,0,VALID,24.7746,VALID,158,VALID,1.36406,
2012-09-03, 02:53:04,VALID,999.327,VALID,0,VALID,74.3278,VALID,0,VALID,24.7941,VALID,170,VALID,1.39648,
2012-09-03, 02:54:04,VALID,999.288,VALID,0,VALID,73.4656,VALID,0,VALID,24.8332,VALID,167,VALID,2.02227,
2012-09-03, 02:55:04,VALID,999.302,VALID,0,VALID,73.2901,VALID,0,VALID,24.8722,VALID,171,VALID,1.59414,
2012-09-03, 02:56:04,VALID,999.285,VALID,0,VALID,73.0994,VALID,0,VALID,24.8898,VALID,164,VALID,1.90391,
2012-09-03, 02:57:04,VALID,999.285,VALID,0,VALID,72.9926,VALID,0,VALID,24.9289,VALID,173,VALID,1.54961,
2012-09-03, 02:58:04,VALID,999.309,VALID,0,VALID,72.6721,VALID,0,VALID,24.9679,VALID,169,VALID,1.7125,
2012-09-03, 02:59:04,VALID,999.298,VALID,0,VALID,72.8629,VALID,0,VALID,24.9874,VALID,162,VALID,1.55781,
2012-09-03, 03:00:04,VALID,999.32,VALID,0,VALID,72.84,VALID,0,VALID,24.9679,VALID,161,VALID,1.60703,
2012-09-03, 03:01:04,VALID,999.357,VALID,0,VALID,72.5882,VALID,0,VALID,24.9698,VALID,165,VALID,1.50156,
2012-09-03, 03:02:04,VALID,999.357,VALID,0,VALID,72.7789,VALID,0,VALID,24.9698,VALID,164,VALID,1.64766,
2012-09-03, 03:03:04,VALID,999.379,VALID,0,VALID,72.634,VALID,0,VALID,24.9503,VALID,174,VALID,1.48242,
2012-09-03, 03:04:04,VALID,999.404,VALID,0,VALID,72.3975,VALID,0,VALID,24.9484,VALID,181,VALID,1.5957,
2012-09-03, 03:05:04,VALID,999.413,VALID,0,VALID,71.9321,VALID,0,VALID,24.9893,VALID,188,VALID,1.7293,
2012-09-03, 03:06:04,VALID,999.442,VALID,0,VALID,71.8405,VALID,0,VALID,25.0284,VALID,167,VALID,1.57656,
2012-09-03, 03:07:04,VALID,999.435,VALID,0,VALID,71.8405,VALID,0,VALID,25.0479,VALID,175,VALID,1.52188,
2012-09-03, 03:08:04,VALID,999.418,VALID,0,VALID,71.6345,VALID,0,VALID,25.0655,VALID,173,VALID,1.48125,
2012-09-03, 03:09:04,VALID,999.421,VALID,0,VALID,71.6727,VALID,0,VALID,25.0655,VALID,169,VALID,1.65859,
2012-09-03, 03:10:04,VALID,999.406,VALID,0,VALID,72.2067,VALID,0,VALID,25.0655,VALID,174,VALID,1.82422,
2012-09-03, 03:11:04,VALID,999.418,VALID,0,VALID,71.7871,VALID,0,VALID,25.0674,VALID,177,VALID,1.66445,
2012-09-03, 03:12:04,VALID,999.406,VALID,0,VALID,71.9321,VALID,0,VALID,25.046,VALID,174,VALID,1.73789,
2012-09-03, 03:13:04,VALID,999.442,VALID,0,VALID,72.0312,VALID,0,VALID,25.0674,VALID,167,VALID,2.19297,
2012-09-03, 03:14:04,VALID,999.44,VALID,0,VALID,71.7489,VALID,0,VALID,25.0674,VALID,173,VALID,1.93281,
2012-09-03, 03:15:04,VALID,999.473,VALID,0,VALID,71.7489,VALID,0,VALID,25.0265,VALID,176,VALID,1.73203,
2012-09-03, 03:16:04,VALID,999.465,VALID,0,VALID,71.1386,VALID,0,VALID,25.046,VALID,181,VALID,1.64883,
2012-09-03, 03:17:04,VALID,999.498,VALID,0,VALID,71.4514,VALID,0,VALID,25.0869,VALID,174,VALID,2.34023,
2012-09-03, 03:18:04,VALID,999.518,VALID,0,VALID,71.9015,VALID,0,VALID,25.046,VALID,158,VALID,1.71523,
2012-09-03, 03:19:04,VALID,999.515,VALID,0,VALID,72.4967,VALID,0,VALID,25.0088,VALID,168,VALID,2.16406,
2012-09-03, 03:20:04,VALID,999.497,VALID,0,VALID,73.0765,VALID,0,VALID,24.9679,VALID,153,VALID,1.60898,
2012-09-03, 03:21:04,VALID,999.515,VALID,0,VALID,73.313,VALID,0.104696,VALID,24.9308,VALID,172,VALID,1.73086,
2012-09-03, 03:22:04,VALID,999.505,VALID,0,VALID,73.7555,VALID,0,VALID,24.9112,VALID,169,VALID,1.29844,
2012-09-03, 03:23:04,VALID,999.555,VALID,0,VALID,73.6182,VALID,0,VALID,24.8898,VALID,170,VALID,1.98164,
2012-09-03, 03:24:04,VALID,999.529,VALID,0,VALID,72.7942,VALID,0,VALID,24.9289,VALID,183,VALID,1.98008,
2012-09-03, 03:25:04,VALID,999.527,VALID,0,VALID,72.84,VALID,0,VALID,24.9484,VALID,171,VALID,1.44062,
2012-09-03, 03:26:04,VALID,999.513,VALID,0,VALID,73.0765,VALID,0,VALID,24.9503,VALID,155,VALID,1.96719,
2012-09-03, 03:27:04,VALID,999.513,VALID,0,VALID,73.3054,VALID,0,VALID,24.8722,VALID,158,VALID,1.77813,
2012-09-03, 03:28:04,VALID,999.513,VALID,0,VALID,74.3049,VALID,0,VALID,24.7922,VALID,150,VALID,1.8918,
2012-09-03, 03:29:04,VALID,999.503,VALID,0,VALID,74.8847,VALID,0,VALID,24.7727,VALID,143,VALID,1.99805,
2012-09-03, 03:30:04,VALID,999.489,VALID,0,VALID,75.106,VALID,0,VALID,24.7337,VALID,142,VALID,2.07109,
2012-09-03, 03:31:04,VALID,999.501,VALID,0,VALID,75.2052,VALID,0,VALID,24.7142,VALID,145,VALID,2.00273,
2012-09-03, 03:32:04,VALID,999.49,VALID,0,VALID,75.1975,VALID,0,VALID,24.6946,VALID,146,VALID,2.13438,
2012-09-03, 03:33:04,VALID,999.512,VALID,0,VALID,75.579,VALID,0,VALID,24.6751,VALID,145,VALID,1.90039,
2012-09-03, 03:34:04,VALID,999.528,VALID,0,VALID,76.1283,VALID,0,VALID,24.6166,VALID,141,VALID,1.46406,
2012-09-03, 03:35:04,VALID,999.493,VALID,0,VALID,76.4106,VALID,0,VALID,24.5775,VALID,139,VALID,1.54883,
2012-09-03, 03:36:04,VALID,999.54,VALID,0,VALID,76.5709,VALID,0,VALID,24.5385,VALID,141,VALID,1.97187,
2012-09-03, 03:37:04,VALID,999.578,VALID,0,VALID,76.4946,VALID,0,VALID,24.5794,VALID,148,VALID,1.82109,
2012-09-03, 03:38:04,VALID,999.57,VALID,0,VALID,76.609,VALID,0,VALID,24.558,VALID,145,VALID,1.53437,
2012-09-03, 03:39:04,VALID,999.606,VALID,0,VALID,76.6777,VALID,0,VALID,24.5599,VALID,145,VALID,1.56562,
2012-09-03, 03:40:04,VALID,999.616,VALID,0,VALID,76.7998,VALID,0,VALID,24.519,VALID,145,VALID,1.54805,
2012-09-03, 03:41:04,VALID,999.641,VALID,0,VALID,76.8989,VALID,0,VALID,24.4995,VALID,135,VALID,1.48867,
2012-09-03, 03:42:04,VALID,999.644,VALID,0,VALID,76.8532,VALID,0,VALID,24.48,VALID,132,VALID,1.99805,
2012-09-03, 03:43:04,VALID,999.676,VALID,0,VALID,77.0744,VALID,0,VALID,24.5013,VALID,138,VALID,1.41172,
2012-09-03, 03:44:04,VALID,999.675,VALID,0,VALID,76.8455,VALID,0,VALID,24.48,VALID,130,VALID,1.67969,
2012-09-03, 03:45:04,VALID,999.677,VALID,0,VALID,77.021,VALID,0,VALID,24.48,VALID,143,VALID,1.65547,
2012-09-03, 03:46:04,VALID,999.679,VALID,0,VALID,76.8989,VALID,0,VALID,24.5013,VALID,145,VALID,1.88984,